Location: Gwatt
(46.7204°N, 7.6223°E)
Time: 06:46:45
(UTC+00:00)

Tiros 1 despin weight - Pass Details

Date: 21 January 2021
Orbit: 593 x 642 km, 48.2° (Epoch: 06 March)

Event Time Altitude Azimuth Distance (km) Brightness Sun altitude
Rises 19:29:09 0° 286° (WNW) 2,847 ? -32.6°
Reaches altitude 10° 19:31:28 10° 284° (WNW) 1,937 ? -33.0°
Enters shadow 19:33:14 23° 280° (W) 1,267 ? -33.3°
